OBJECT C, 64627

Orbit data source: Space-Track

You're viewing an Uncataloged Satellite

Recently launched and/or uncataloged satellites may have evolving metadata. Metadata may include but not limited to: Owner, Maufacturer, Bus, Motor, and Mission.

OBJECT C, 64627 is a satellite owned by TsNIIKhM (CIS) in SSO that was launched on Mon, 01 Aug 2022 UTC via a SOYUZ-2-1V launch vehicle from the Plesetsk Missile And Space Complex (PKMTR). Unknown objects in Earth's orbit typically refer to objects detected orbiting the Earth but have not yet been identified or cataloged. These objects could be anything from previously untracked satellites, spent rocket stages, debris from satellite collisions, or even natural meteoroids temporarily captured by Earth's gravity.

Loading next visibility...
Identifier
64627, 2022-089C
Orbit
SSO
Country
Flag of CISCIS
Related business
Manufacturer
TsNIIKhM
Mission
Defense Technology
Bus & Motor
NIVELIR, Unknown motor
Mass
~100 kg wet, ~100 kg dry
Launch date (UTC)
2022-08-01 (3 years ago)
Launch vehicle
SOYUZ-2-1V
Launch site
Plesetsk Missile And Space Complex (PKMTR)
Object type
Unknown
Shape & HBR
Hex Cyl + 1 Ant, 1.1 m
Radar Cross Section
0.352 m², Medium (>0.1 m² and < 1m²)

Expand to show TLE details & history
Last TLE update: 5 hours ago

TLE from 5 hours ago
0 OBJECT C
1 64627U 22089C   25342.76101741  .00015940  00000-0  43204-3 0  9994
2 64627  97.2351  76.7845 0013553  34.0626 326.1486 15.37630123 25388
Epoch: 2025-12-08T18:15Z
TLE epoch observation values (Epoch: 2025-12-08T18:15:51.904Z)
Latitude
-0.00004°
Longitude
85.06282°
Altitude
448.552 km
Speed
7.647 km/s
True Right ascension
05h 07m 08s
True Declination
0° 00' 00"
Sunlit
Object was in full shadow at epoch
Visualization orbit readout
Latitude
Unknown
Longitude
Unknown
Altitude
Unknown
Speed
Unknown
Apparent Right ascension
Unknown
Apparent Declination
Unknown
Sunlit
N/A
Visualization observer readout
Local Sidereal Time
21:55:57
Azimuth
Unknown
Elevation
Unknown
Doppler factor
Unknown
Orbital elements
Apogee altitude
459.309 km
Perigee altitude
440.8 km
Semi-major axis
6,828.192 km
Eccentricity
0.00136
Inclination
97.2351°
RAAN
76.7845°
Arg. of periapsis
34.0626°
True anomaly
326.06197°
Mean anomaly
326.1486°
Eccentric anomaly
326.1053°
Mean motion
3.84667 °/min
Orbital period
93.59 mins
BSTAR
0.00043204
Loading maneuver chart data...
Computing Atmospheric mass density...
Loading historical data...
Loading historical data...
Loading historical data...
Loading historical data...
Loading historical data...
Loading historical data...
Loading historical data...
Other satellites on launch #89 in the year 2022 (2022-08-01 UTC)

Documentation

Showing up to 5 results
|